STARLINK-32705 (62479 NORAD) Tracking and Keplerian Element Data

This shows tracking and keplerian element data for the satellite.

Feedback or suggestion? Click here.




ElementValue
Catalog62479
NameSTARLINK-32705
Epoch Orbit651
Epoch Day35.23823522
Epoch Year2025
RAAN110.1869
Inclination42.9991
Eccentricity8.92E-05
Argument of Perigee260.287
Mean Anonmoly99.7885
Mean Motion15.40709133
Decay Rate-3.02E-06
L11 62479U 24254T 25035.23823522 -.00000302 00000+0 22061-7 0 9990
L22 62479 42.9991 110.1869 0000892 260.2870 99.7885 15.40709133 6515



Live tracking and technical data element details for STARLINK-32705 (NORAD 62479). STARLINK-32705 can be tracked NOW for your location showing map with azimuth and elevation plus other details from your city location.







IsCatalogInMostPopularTable: catalog: 62479, numindb: 23
Update: records affected: 1



GetName: 62479 STARLINK-32705

Hit Count: updated at: Sun, 18 May 2025 23:32:51 GMT